Location: Maiden
(35.5760°N, 81.2120°W)
Time: 02:39:27
(UTC-04:00)

A-11 Canister half - Pass Details

Date: 07 August 2020
Orbit: 1527 x 1682 km, 47.3° (Epoch: 25 September)

Event Time Altitude Azimuth Distance (km) Brightness Sun altitude
Rises 22:08:45 0° 297° (WNW) 4,875 13.1 -19.7°
Reaches altitude 10° 22:12:32 10° 286° (WNW) 3,862 12.1 -20.3°
Maximum altitude 22:20:14 27° 234° (SW) 2,703 10.4 -21.5°
Enters shadow 22:27:03 12° 184° (S) 3,584 10.6 -22.6°
Drops below altitude 10° 22:27:45 10° 181° (S) 3,751 - -22.7°
Sets 22:31:24 0° 169° (S) 4,711 - -23.2°
